KL7GG Weather Reports


Display with metric or nautical units.
time (UTC)temp
F
wind
direction
speed
MPH
gust
MPH
rain 1hr
in
rain 24hr
in
rain mn
in
humidity
%
barometer
mb
20260902132752 36 0 0.0 0.0 0.00 0.00 0.00 91 1006.3
20260902131249 36 0 0.0 0.0 0.00 0.00 0.00 91 1006.1
20260902125744 36 0 0.0 0.0 0.00 0.00 0.00 92 1006.0
20260902122734 36 0 0.0 0.0 0.00 0.00 0.00 91 1005.5
20260902121229 36 0 0.0 0.0 0.00 0.00 0.00 91 1005.6
20260902115726 37 0 0.0 0.0 0.00 0.00 0.00 91 1005.6
20260902114222 37 0 0.0 0.0 0.00 0.00 0.00 91 1005.6
20260902112718 37 0 0.0 0.0 0.00 0.00 0.00 91 1005.6
20260902111213 37 0 0.0 0.0 0.00 0.00 0.00 91 1005.6
20260902105710 37 0 0.0 0.0 0.00 0.00 0.00 90 1005.6
20260902104206 37 0 0.0 0.0 0.00 0.00 0.00 90 1005.6
20260902102702 37 0 0.0 0.0 0.00 0.00 0.00 90 1005.6
20260902101157 37 0 0.0 0.0 0.00 0.00 0.00 89 1005.6
20260902095654 38 0 0.0 0.0 0.00 0.00 0.00 89 1005.7
20260902094150 38 0 0.0 0.0 0.00 0.00 0.00 89 1005.6
20260902092646 39 0 0.0 0.0 0.00 0.00 0.00 89 1005.5
20260902091142 39 0 0.0 0.0 0.00 0.00 0.00 89 1005.6
20260902085637 39 0 0.0 0.0 0.00 0.00 0.00 89 1005.5
20260902084132 40 0 0.0 0.0 0.00 0.00 0.00 89 1005.5
20260902082628 40 0 0.0 0.0 0.00 0.00 0.00 88 1005.3
20260902075617 42 0 0.0 0.0 0.00 0.00 0.00 89 1005.2
20260902072607 42 0 0.0 0.0 0.00 0.00 0.00 88 1005.2
20260902071104 43 0 0.0 0.0 0.00 0.00 0.00 87 1005.2
20260902064052 43 0 0.0 0.0 0.00 0.00 0.00 87 1005.3
20260902062548 44 0 0.0 0.0 0.00 0.00 0.00 85 1005.1
20260902055538 45 0 0.0 0.0 0.00 0.00 0.00 84 1005.0
20260902054033 46 0 0.0 0.0 0.00 0.00 0.00 83 1005.0
20260902051021 49 0 0.0 0.0 0.00 0.00 0.00 80 1004.8
20260902045517 50 0 0.0 0.0 0.00 0.00 0.00 79 1004.6
20260902044014 51 0 0.0 0.0 0.00 0.00 0.00 77 1004.6
20260902042510 52 0 0.0 0.0 0.00 0.00 0.00 76 1004.7
20260902041006 53 0 0.0 0.0 0.00 0.00 0.00 71 1004.8
20260902035502 54 0 0.0 0.0 0.00 0.00 0.00 69 1004.8
20260902033957 55 0 0.0 0.0 0.00 0.00 0.00 66 1004.7
20260902032454 56 0 0.0 0.0 0.00 0.00 0.00 66 1004.6
20260902030948 57 0 0.0 1.0 0.00 0.00 0.00 61 1004.5
20260902025438 58 0 0.0 1.0 0.00 0.00 0.00 60 1004.6
20260902023934 58 0 0.0 0.0 0.00 0.00 0.00 59 1004.5
20260902022430 58 0 0.0 3.0 0.00 0.00 0.00 52 1004.5
20260902020925 58 0 0.0 5.0 0.00 0.00 0.00 54 1004.5
20260902015421 58 0 0.0 0.0 0.00 0.00 0.00 53 1004.5
20260902013918 59 0 0.0 10.0 0.00 0.00 0.00 52 1004.5
20260902012413 59 291 5.0 11.0 0.00 0.00 0.00 52 1004.5
20260902010911 58 0 0.0 5.0 0.00 0.00 0.00 52 1004.6
20260902003859 56 0 0.0 9.0 0.00 0.00 0.00 53 1004.7
20260902002354 56 0 0.0 9.0 0.00 0.00 0.00 51 1004.7
20260902000849 56 322 3.0 11.0 0.00 0.00 0.00 53 1004.7
20260901235347 56 0 0.0 8.0 0.00 0.00 0.00 52 1004.7
20260901233842 55 0 0.0 7.0 0.00 0.00 0.00 54 1004.7
20260901230831 55 320 2.0 12.0 0.00 0.00 0.00 56 1004.7
20260901223823 54 320 1.0 7.0 0.00 0.00 0.00 56 1005.0
20260901220814 53 0 0.0 6.0 0.00 0.00 0.00 58 1005.2
20260901215311 53 0 0.0 7.0 0.00 0.00 0.00 61 1005.2
20260901213805 52 0 0.0 7.0 0.00 0.00 0.00 61 1005.4
20260901212306 52 268 1.0 11.0 0.00 0.00 0.00 64 1005.4
20260901210757 51 246 1.0 9.0 0.00 0.00 0.00 64 1005.4
20260901205254 51 268 2.0 9.0 0.00 0.00 0.00 66 1005.5
20260901203747 50 0 0.0 4.0 0.00 0.00 0.00 65 1005.5
20260901200739 48 0 0.0 5.0 0.00 0.00 0.00 68 1005.6
20260901195234 47 0 0.0 6.0 0.00 0.00 0.00 71 1005.6
20260901193732 47 0 0.0 3.0 0.00 0.00 0.00 74 1005.5
20260901192227 46 0 0.0 0.0 0.00 0.00 0.00 78 1005.6
20260901190719 45 0 0.0 3.0 0.00 0.00 0.00 84 1005.6
20260901185216 44 0 0.0 1.0 0.00 0.00 0.00 91 1005.7
20260901183711 43 0 0.0 3.0 0.00 0.00 0.00 94 1005.8
20260901182208 41 0 0.0 0.0 0.00 0.00 0.00 96 1006.0
20260901175159 39 0 0.0 2.0 0.00 0.00 0.00 95 1006.1
20260901173657 38 0 0.0 0.0 0.00 0.00 0.00 95 1006.2
20260901172152 37 0 0.0 0.0 0.00 0.00 0.00 95 1006.2
20260901170648 35 0 0.0 0.0 0.00 0.00 0.00 94 1006.2
20260901165143 34 0 0.0 0.0 0.00 0.00 0.00 94 1006.2
20260901163640 33 0 0.0 0.0 0.00 0.00 0.00 94 1006.2
20260901162135 32 0 0.0 0.0 0.00 0.00 0.00 93 1006.0
20260901160633 32 0 0.0 0.0 0.00 0.00 0.00 93 1005.9
20260901155128 31 0 0.0 0.0 0.00 0.01 0.00 93 1005.8
20260901153623 31 0 0.0 0.0 0.00 0.03 0.00 92 1005.7
20260901152120 31 0 0.0 0.0 0.00 0.05 0.00 92 1005.7
20260901145111 32 0 0.0 0.0 0.00 0.10 0.00 92 1005.8
20260901140559 32 0 0.0 0.0 0.00 0.21 0.00 92 1005.7
20260901135054 32 0 0.0 0.0 0.00 0.23 0.00 92 1005.6
20260901133550 32 0 0.0 0.0 0.00 0.30 0.00 92 1005.5